Theta_e
290 290 290 290 290 290 290 290 290 290 290 290 290 290 289 289 289 289 289 289 289 288 288 288 288 288 288 288 288 288 288 287 287 287 287 287 287 287 287 287 287 287 287 287 287 287 287 287 287 287 286 287 287 287 287 287 287 288 288 288 288 287 287 286 285 286 286 287 288 289 290 290 292 293 294 296 296 296 296 297 297 297 297 298 298
290 290 290 290 290 290 290 290 290 290 290 289 289 289 289 289 289 289 289 288 288 288 288 288 287 287 287 287 287 287 287 286 286 286 286 286 286 286 286 286 286 286 287 287 287 287 287 287 287 287 286 286 287 286 286 286 286 286 287 287 287 288 287 287 286 286 286 286 287 287 287 288 288 289 290 292 294 295 296 296 296 296 297 297 297
290 290 290 291 291 291 290 290 290 290 289 289 289 289 289 289 289 288 288 288 288 288 288 288 287 287 287 286 286 286 286 286 286 286 286 286 286 286 286 286 286 286 286 287 287 287 287 287 287 287 287 287 287 286 286 286 286 286 286 286 286 286 287 287 287 287 287 287 287 287 287 287 287 288 288 288 290 291 293 295 296 296 296 296 297
290 291 291 291 291 290 290 290 290 290 289 289 289 289 289 288 288 288 288 288 288 288 288 287 287 287 287 286 286 286 286 285 285 285 285 285 285 286 286 286 286 286 286 286 286 286 286 287 287 287 286 286 287 286 286 286 286 285 285 286 285 285 286 286 286 287 287 287 287 287 287 287 287 287 287 287 288 288 289 291 293 295 296 296 296
291 291 291 291 291 290 290 290 289 289 289 289 289 288 288 288 288 288 288 288 288 288 287 287 287 287 286 286 286 285 285 285 285 285 285 285 285 285 285 285 285 286 286 286 286 286 286 286 286 286 286 286 286 286 286 286 286 285 285 285 285 285 285 285 285 285 286 287 287 287 287 287 287 287 287 287 287 287 287 288 289 291 293 295 296
291 291 291 291 290 290 290 290 289 289 289 288 288 288 288 288 288 288 288 288 288 287 287 287 287 286 286 285 285 285 284 284 284 284 284 284 284 285 285 285 285 285 285 286 286 285 286 286 286 286 286 286 286 286 286 285 285 285 285 285 284 284 284 284 284 284 284 285 286 286 287 287 287 287 287 287 287 287 287 287 287 288 289 291 293
291 291 291 291 290 290 290 290 289 289 288 288 288 288 288 288 288 288 287 287 287 287 287 287 286 286 285 284 284 284 284 284 284 284 284 284 284 284 285 285 285 285 285 285 285 285 285 284 284 284 283 284 284 284 284 284 284 284 283 283 283 283 283 284 284 283 284 284 285 285 285 286 286 287 287 287 287 287 287 287 287 288 288 288 289
291 291 291 291 291 290 290 289 288 288 288 288 288 287 287 287 287 287 287 287 287 286 286 286 285 285 284 284 284 283 283 284 284 284 284 284 284 284 284 284 284 284 284 284 284 284 283 283 282 282 281 281 280 281 281 282 282 282 282 282 282 282 282 283 283 283 283 283 284 284 284 284 285 285 286 286 287 287 287 287 287 287 288 287 287
291 291 291 291 290 290 289 288 288 287 287 287 287 287 287 287 287 287 287 286 286 286 285 285 284 284 283 283 283 283 283 283 283 284 284 284 284 284 284 284 284 284 284 284 284 283 282 281 280 280 279 279 278 278 278 278 279 280 281 280 280 281 281 281 282 282 282 282 283 283 283 283 284 284 284 285 286 287 287 287 286 287 287 287 287
291 291 290 290 289 289 288 288 287 287 287 287 287 287 287 287 287 286 286 285 285 285 284 284 283 283 283 283 283 283 283 283 283 283 283 283 283 283 283 283 283 283 283 283 282 282 280 280 279 279 278 278 277 277 277 277 277 278 278 279 279 279 280 280 281 281 282 282 282 282 282 283 283 283 283 284 284 285 286 286 286 287 287 286 287
291 290 290 289 289 288 288 287 287 287 287 287 286 286 286 286 286 286 285 285 284 284 283 283 283 283 283 283 283 283 283 283 283 283 282 282 281 281 281 282 281 281 280 280 280 279 278 278 278 278 277 276 276 276 276 275 276 276 276 277 278 278 279 280 280 280 281 281 282 282 282 282 283 283 283 283 283 284 284 285 285 286 286 286 286
290 290 289 289 288 288 288 288 287 287 287 286 286 286 286 286 285 285 284 284 284 283 283 283 283 283 283 283 283 283 283 283 283 282 282 281 280 280 280 280 279 279 278 277 277 276 276 276 276 276 276 275 275 275 275 275 275 275 275 275 276 277 278 278 279 279 280 281 281 282 282 282 283 283 283 283 283 284 284 284 285 285 286 285 286
289 289 289 289 288 288 288 287 287 287 286 286 286 286 286 285 285 284 284 283 283 283 283 283 283 283 283 283 283 283 283 283 282 282 281 281 280 279 279 278 278 277 276 275 275 275 275 275 275 275 275 275 274 274 274 274 274 274 274 274 275 275 276 276 277 278 279 279 280 280 281 281 282 282 282 283 283 284 284 284 284 285 285 285 285
289 289 289 288 288 288 287 287 287 286 286 285 285 285 285 284 284 283 283 283 283 283 283 283 283 283 283 283 283 283 283 282 282 281 281 280 279 278 278 277 277 276 275 275 275 274 274 274 273 273 272 272 272 272 273 273 273 273 273 273 274 274 274 275 275 276 277 278 278 279 279 280 280 281 281 281 282 282 283 283 284 284 285 285 285
289 289 288 288 288 287 287 287 286 286 285 285 285 285 284 283 283 283 282 282 282 282 282 283 283 283 283 283 283 283 282 282 281 281 280 279 279 278 277 277 276 275 275 274 274 274 273 272 271 270 270 270 271 271 271 272 272 272 272 272 273 273 273 274 274 275 275 276 276 277 277 278 278 279 280 280 280 280 281 281 282 283 283 284 284
289 288 288 288 288 287 287 286 286 285 285 285 285 284 283 283 282 282 282 282 282 282 282 282 282 282 282 282 282 282 282 281 280 280 279 279 278 277 276 276 275 275 274 274 274 273 272 271 270 270 270 270 271 272 271 271 271 271 272 272 273 273 273 274 274 275 275 275 276 276 276 277 278 278 279 280 280 281 282 282 282 282 282 283 283
288 288 288 287 287 287 286 286 285 285 285 285 284 283 283 282 282 282 282 282 282 282 282 282 282 282 282 282 282 282 281 280 280 279 278 278 277 276 276 275 274 274 274 274 273 271 270 270 270 270 270 271 272 272 271 272 272 272 272 272 273 273 273 273 274 274 275 275 276 276 277 277 278 278 279 279 280 281 282 282 283 284 283 284 283
288 288 287 287 287 286 286 285 285 285 285 284 283 283 282 282 282 281 282 282 282 282 282 282 282 282 281 281 281 281 281 280 279 278 278 277 276 276 275 274 274 274 274 273 272 270 270 270 270 270 270 270 271 272 272 272 273 272 272 272 272 272 272 273 273 274 274 275 275 275 276 276 277 277 277 278 278 279 280 281 282 283 284 284 284
288 287 287 287 286 286 285 285 285 285 284 283 283 282 282 281 281 281 281 281 282 282 281 282 282 281 281 280 280 280 280 279 278 277 277 276 276 275 275 274 274 274 273 272 271 270 270 270 270 271 271 271 271 272 273 273 273 273 273 273 273 273 273 273 274 274 275 275 275 275 275 275 275 275 275 276 277 277 278 279 280 281 282 283 285
287 287 287 286 286 286 285 285 285 285 284 283 282 282 281 281 281 281 281 281 281 281 281 281 281 281 280 280 279 279 279 278 278 277 276 276 276 275 274 274 274 273 272 271 270 270 270 270 271 272 272 272 272 273 273 274 274 274 274 274 274 274 274 275 275 275 276 276 276 276 276 276 276 275 275 275 275 276 277 278 278 279 280 281 282
287 286 286 286 286 286 285 285 285 284 283 282 281 281 281 280 281 280 281 281 281 281 281 281 281 281 280 279 279 278 278 278 277 277 276 276 276 275 275 274 273 272 271 270 271 271 270 271 272 273 273 273 273 273 274 274 275 275 275 275 275 275 275 276 276 276 276 276 276 276 275 275 275 275 275 275 275 275 276 276 277 278 279 280 280
286 286 286 286 286 285 285 285 284 283 282 281 281 281 280 280 280 280 280 281 281 281 280 280 280 280 280 279 279 278 277 277 277 277 277 276 276 275 275 274 272 271 271 271 271 271 271 271 272 273 274 274 274 274 275 275 276 276 275 275 275 276 276 276 276 275 275 275 274 274 274 274 274 274 274 274 274 274 274 275 276 277 278 279 280
286 286 286 285 285 285 285 285 283 282 281 281 280 280 280 280 280 280 280 280 280 280 280 279 279 280 280 279 278 277 277 277 277 277 277 276 276 276 275 274 272 271 271 271 271 271 271 272 273 274 274 275 275 275 276 275 275 275 275 275 275 275 275 275 275 274 274 274 273 273 274 274 274 274 274 274 274 274 274 274 274 275 276 278 279
286 286 285 285 285 285 285 284 282 281 280 280 280 280 279 280 279 279 279 279 279 279 279 279 279 279 279 279 278 278 277 277 277 277 277 276 276 276 275 273 272 271 271 271 271 271 272 273 273 274 275 275 275 275 275 275 275 274 274 275 275 274 274 274 273 273 273 273 273 273 274 274 274 275 275 275 274 274 273 273 273 274 275 276 277
286 285 285 285 285 285 284 283 281 280 280 280 280 279 279 279 279 279 279 279 279 279 278 278 278 277 277 278 278 278 277 277 277 277 276 276 276 276 275 273 272 271 271 271 271 271 272 273 273 274 274 275 275 275 275 274 274 274 274 274 274 274 274 273 273 273 273 273 273 273 274 274 275 275 275 275 274 274 274 274 273 273 274 274 275
286 285 285 285 284 284 283 282 280 280 279 279 279 279 279 279 279 279 278 278 278 278 278 277 277 276 276 277 277 277 277 277 276 276 276 276 276 275 274 272 271 271 271 271 272 272 273 273 273 273 274 274 274 273 273 274 274 274 274 274 274 274 274 274 274 274 273 273 273 273 274 274 274 274 274 273 274 274 274 273 273 273 274 274 274
286 285 285 285 284 284 283 281 280 279 279 279 278 278 278 278 279 278 278 278 278 277 277 277 276 276 276 276 277 277 276 276 276 276 276 275 275 273 272 271 271 271 271 272 272 272 273 273 273 273 273 273 273 273 273 274 274 274 274 274 275 275 275 275 274 273 273 273 272 272 272 272 272 272 272 272 272 272 272 272 272 273 274 274 274
285 285 285 284 284 283 282 280 280 279 279 278 278 278 278 278 278 278 277 277 277 277 276 276 276 276 276 276 276 276 275 275 275 275 274 273 272 271 271 271 271 271 271 271 271 272 272 273 273 274 273 273 273 273 273 273 274 274 274 275 275 275 275 275 275 274 273 272 272 272 272 272 272 272 271 271 271 272 272 272 272 273 273 274 274
285 285 284 284 283 282 281 280 279 279 279 278 278 278 278 278 278 278 277 277 277 277 276 276 276 275 274 274 274 274 274 274 274 273 271 270 271 271 272 271 271 271 271 271 271 272 272 273 274 274 274 274 274 274 274 274 274 274 275 275 275 275 275 275 275 274 274 273 272 272 272 272 272 272 272 272 272 272 272 272 273 273 273 274 275
284 284 284 283 282 281 280 279 279 279 279 278 278 278 277 277 277 277 277 276 276 276 275 275 275 273 272 272 272 273 273 272 272 272 270 269 270 272 273 272 272 272 272 272 273 273 273 273 274 274 274 274 274 274 274 274 274 274 275 276 276 276 276 276 275 274 274 273 273 273 273 273 273 273 273 273 273 273 273 273 273 274 274 275 275
284 284 283 282 281 280 279 279 279 278 278 278 278 278 278 277 276 276 276 276 276 275 275 274 274 273 272 272 273 273 273 273 272 271 269 269 271 273 273 273 273 273 273 273 273 273 273 273 273 273 273 273 273 273 273 273 273 274 274 275 276 276 276 276 275 274 274 274 273 273 273 273 273 273 273 273 273 273 273 273 274 274 275 275 276
283 283 282 281 280 279 279 279 278 278 278 278 277 278 278 277 277 276 275 275 275 275 275 274 274 273 273 272 273 273 273 273 272 270 269 270 272 273 273 273 273 273 273 273 273 272 272 272 272 272 272 272 272 272 272 272 272 273 273 273 275 276 275 275 275 274 274 274 274 274 274 274 274 274 274 274 273 273 274 274 275 275 276 276 277
283 282 281 280 279 279 278 278 278 278 277 277 277 277 277 277 277 276 275 275 275 275 275 274 273 273 273 273 273 272 272 272 271 269 269 271 272 272 272 272 272 272 272 273 273 272 272 271 271 271 271 271 271 271 272 272 272 272 272 272 273 274 274 274 274 274 274 274 274 274 275 275 275 275 275 275 275 275 275 275 276 276 277 277 278
282 281 280 279 279 278 278 278 277 277 277 277 277 276 276 275 275 275 275 275 275 275 275 274 273 273 273 273 273 272 272 272 271 270 270 271 271 271 272 272 272 272 272 272 272 272 272 272 272 271 271 271 271 271 271 271 271 271 271 271 272 272 273 273 274 274 274 273 273 274 275 275 276 276 276 276 276 276 276 276 277 277 278 278 279
281 280 279 278 278 278 277 277 277 277 276 276 276 275 275 274 274 274 274 274 274 275 275 275 274 273 273 273 273 272 272 272 271 271 271 271 271 271 272 272 273 273 272 272 272 271 271 271 271 271 270 270 270 270 270 271 271 271 270 271 271 272 273 273 273 273 273 273 273 274 275 275 276 276 276 276 277 277 277 277 277 278 279 279 280
280 279 278 278 277 277 277 277 276 276 275 275 275 274 274 274 273 273 273 273 274 274 274 274 274 273 272 272 272 272 271 271 271 271 271 270 271 271 272 272 272 272 272 272 272 271 271 271 271 270 270 270 270 270 270 270 270 270 270 270 270 271 272 272 273 273 273 273 274 275 275 275 276 276 276 276 277 277 277 278 278 279 279 280 280
278 278 277 277 277 277 276 276 275 275 275 274 274 273 273 273 273 273 273 273 273 273 273 273 274 274 273 272 272 272 272 271 271 271 270 270 271 271 271 272 272 272 272 271 271 271 271 271 270 270 270 270 270 269 269 269 269 270 270 270 270 270 271 271 272 272 273 273 274 274 275 275 276 276 276 277 277 277 278 278 278 279 279 280 280
277 277 277 276 276 276 276 275 274 274 274 273 273 272 272 272 272 272 272 272 272 272 272 272 272 273 273 273 272 272 272 272 272 271 271 271 271 271 271 271 271 271 271 271 271 271 271 271 271 271 270 270 270 269 269 269 269 269 269 269 270 270 270 271 271 272 273 273 273 274 274 275 275 275 276 277 277 277 278 278 278 279 279 280 280
277 276 276 275 275 275 274 274 273 273 272 272 272 271 271 271 272 272 272 272 272 272 272 272 272 272 272 272 272 272 272 272 272 271 271 271 271 271 271 271 271 271 271 271 271 271 271 271 271 271 271 270 270 270 270 269 269 269 269 269 269 270 270 271 271 272 272 273 273 273 274 274 274 275 275 276 277 277 278 278 278 279 279 280 280
276 276 275 275 274 274 273 273 272 272 271 271 271 271 271 271 271 272 272 272 271 271 271 271 271 271 271 272 271 271 272 271 271 271 271 271 271 271 271 271 271 271 270 271 271 271 271 271 271 271 271 271 270 270 270 270 269 269 268 268 269 269 270 270 271 271 272 272 272 273 273 273 274 274 275 275 276 277 277 278 279 279 279 279 280
275 275 274 274 273 273 272 272 271 271 270 270 270 270 270 271 271 271 271 271 271 271 271 271 271 270 271 271 270 271 271 271 270 270 270 271 271 271 270 270 270 270 270 270 270 270 270 270 270 270 270 271 271 271 270 270 270 269 269 268 268 269 269 270 270 271 271 272 272 272 273 273 273 274 274 275 276 276 277 278 278 279 279 279 279
274 274 273 273 272 272 271 271 270 270 270 269 269 269 270 270 271 271 271 271 271 271 270 270 270 270 270 270 270 270 270 270 270 270 270 270 270 270 270 270 270 269 269 269 270 270 270 270 270 270 270 270 270 271 271 270 270 270 270 269 269 269 269 270 270 270 271 271 272 272 272 273 273 273 274 274 275 276 277 277 277 278 278 278 279
273 273 272 271 271 270 270 270 269 269 269 269 269 269 269 270 270 270 271 270 270 270 270 270 270 270 269 269 269 269 270 270 270 270 270 270 270 270 270 270 269 269 269 269 269 269 269 270 270 270 270 270 270 270 271 271 270 270 270 270 269 269 269 269 270 270 270 271 271 272 272 273 273 273 273 274 275 276 276 276 277 277 277 278 278
272 272 271 270 270 269 269 269 268 268 268 268 268 269 269 269 270 270 270 270 270 270 270 270 270 270 269 269 269 269 269 269 269 270 270 270 270 270 270 270 269 269 269 269 269 269 269 269 270 270 270 269 269 270 270 271 271 270 270 270 270 269 269 269 270 270 270 271 271 272 272 272 273 273 273 274 274 275 275 276 276 276 276 277 277
271 270 269 269 269 268 268 268 268 268 268 268 268 268 268 269 269 269 269 270 270 270 269 269 269 269 269 269 269 269 269 269 269 269 270 270 270 270 269 269 269 269 269 269 269 269 269 269 269 270 270 270 269 269 270 270 271 271 270 270 270 270 270 269 270 270 270 271 271 271 272 272 272 272 273 273 273 274 274 275 275 275 275 275 276
269 268 268 268 268 267 267 267 267 267 267 268 268 268 268 268 268 268 269 269 269 269 269 269 269 269 269 269 269 269 269 269 269 269 269 269 269 269 269 269 269 269 269 269 269 269 269 269 269 269 269 269 269 269 270 270 270 271 271 271 271 270 270 270 270 270 271 271 271 271 271 272 272 272 272 272 273 273 274 274 274 274 274 274 275
267 267 267 267 267 267 266 266 267 267 267 267 267 267 267 267 267 268 268 268 268 269 269 269 269 269 269 269 269 269 269 269 269 269 269 269 269 269 269 269 269 269 269 269 269 269 269 269 269 269 269 269 269 269 269 269 270 270 270 270 271 271 271 271 271 271 271 271 271 271 271 271 272 272 272 272 272 272 273 273 273 273 273 273 274
266 266 266 266 266 266 266 266 266 266 267 267 267 267 267 267 267 267 267 267 267 268 268 268 268 268 268 269 268 268 269 269 269 269 269 269 269 269 269 269 269 269 269 269 269 269 269 269 269 269 269 269 269 269 269 269 269 270 270 270 270 271 271 271 271 272 272 271 271 271 271 271 272 272 272 272 272 272 272 272 272 272 272 273 273
265 265 265 265 266 266 266 266 266 266 266 266 267 267 267 267 267 267 267 267 267 267 267 267 267 267 268 268 268 268 268 269 269 269 269 269 269 269 269 269 269 269 269 269 269 269 269 269 269 269 269 269 269 269 269 269 269 269 269 270 270 270 270 271 271 272 272 272 272 272 272 272 272 272 272 272 271 271 271 271 272 272 272 272 272
265 265 265 265 265 265 265 266 266 266 266 266 266 266 266 266 267 266 266 266 267 267 266 267 267 267 267 267 267 267 268 268 268 268 268 269 269 269 269 269 269 269 269 269 269 269 269 269 269 269 269 269 269 269 269 269 269 269 269 269 269 270 270 270 271 271 271 271 271 272 272 272 272 272 272 271 271 271 271 271 271 271 271 271 271
265 265 265 265 265 265 265 265 266 266 266 266 266 266 266 266 266 266 266 266 267 267 266 266 266 266 266 266 266 267 267 267 267 267 267 267 268 268 268 268 268 268 268 268 268 268 268 269 269 269 269 269 269 269 269 269 269 268 268 269 269 269 269 270 270 271 271 271 271 271 271 272 272 272 272 271 271 271 271 271 271 271 271 271 271
Wind_Speed
1 0 2 3 5 6 7 9 10 11 12 13 15 16 18 20 20 21 23 23 24 25 25 25 25 25 25 25 25 25 26 26 27 28 29 29 30 30 31 32 33 34 35 35 34 34 35 35 34 33 33 34 34 34 34 33 32 32 31 32 32 31 31 32 37 44 44 39 39 39 37 37 38 37 35 36 35 35 36 37 37 38 39 40 41
1 2 4 5 6 8 9 11 12 13 14 16 17 19 21 22 23 24 25 26 27 27 27 27 26 26 25 24 24 24 26 27 28 29 30 31 32 33 34 35 36 36 37 37 38 38 39 39 39 38 37 37 37 37 37 36 36 36 35 34 35 34 33 34 38 43 47 44 42 41 39 37 38 38 36 36 35 34 34 35 35 37 38 38 39
2 4 6 7 8 10 12 14 16 18 19 21 22 24 25 26 27 28 29 29 30 30 31 31 31 30 28 28 28 28 28 29 30 31 32 34 35 35 36 38 39 40 41 41 42 42 43 44 43 44 43 43 43 42 41 40 39 40 39 38 38 38 36 35 37 42 47 47 45 43 42 39 40 40 37 37 36 35 35 35 34 34 36 37 38
5 6 8 9 11 13 15 17 19 21 23 25 26 28 29 29 30 31 31 31 32 32 33 34 34 34 33 32 33 33 33 34 35 36 37 38 39 40 40 41 41 42 43 43 44 45 46 47 47 48 48 48 49 47 46 45 43 43 43 42 41 41 39 38 39 41 45 48 48 45 44 42 42 41 39 39 38 37 36 36 35 34 34 35 36
7 8 10 12 14 15 17 19 21 23 25 27 28 29 30 30 31 32 32 33 33 34 34 34 34 34 34 35 36 37 38 39 40 41 42 42 43 43 44 44 44 44 44 45 45 46 47 48 48 49 50 51 52 52 50 49 48 46 46 45 43 43 42 41 41 42 44 48 50 48 46 45 44 43 41 40 40 40 39 38 36 35 35 34 34
9 10 12 14 16 17 19 21 23 25 27 28 29 29 30 31 32 32 33 34 35 35 35 35 34 34 35 36 38 39 41 42 43 44 44 44 44 44 44 45 45 46 46 46 47 47 48 49 49 49 50 51 52 53 53 52 50 49 48 47 45 44 45 45 44 43 44 47 50 50 49 48 47 46 43 40 40 42 41 41 39 37 36 35 34
10 12 13 15 17 18 20 22 24 26 28 28 29 29 30 31 32 33 34 35 36 36 36 35 34 35 36 38 39 41 42 43 43 43 43 43 44 44 45 45 46 46 47 47 48 49 49 50 50 50 50 50 51 51 52 52 52 51 49 46 44 44 45 46 46 45 45 47 49 50 50 48 47 47 45 41 41 42 42 42 42 40 38 37 36
12 14 15 16 17 19 21 23 25 26 26 27 28 29 30 31 33 34 35 36 36 36 35 35 35 37 38 39 40 41 41 42 42 41 42 42 43 45 45 46 47 48 48 49 49 49 49 49 49 49 48 48 48 46 46 46 47 49 48 44 41 41 43 44 45 45 46 47 50 51 50 49 48 47 46 43 43 45 43 40 42 43 41 39 38
14 15 16 16 17 19 21 23 24 25 25 26 28 29 31 32 33 34 35 35 35 34 34 36 37 39 40 40 40 41 41 40 40 41 42 43 44 45 46 47 48 49 50 50 50 49 48 47 47 46 46 45 45 44 43 42 41 43 45 42 39 40 40 40 41 42 43 45 49 51 50 50 49 47 46 44 44 45 43 40 41 44 43 41 42
16 16 16 17 18 20 22 23 24 24 26 27 29 30 31 33 33 33 33 33 33 34 36 37 39 40 40 40 40 40 40 40 40 41 42 43 44 46 47 48 48 49 50 51 51 50 47 46 45 44 42 42 42 41 41 41 39 38 40 40 39 39 40 40 39 39 40 42 46 48 48 50 51 48 46 44 42 42 41 41 42 44 43 42 44
18 17 17 18 20 22 24 24 24 26 27 28 30 31 32 32 32 32 32 32 34 35 37 38 39 39 40 40 40 40 40 40 41 41 42 42 43 45 46 47 48 48 48 49 49 48 47 45 43 42 41 40 40 40 39 39 39 38 38 38 37 36 37 38 40 39 38 39 42 43 44 48 51 50 47 45 42 39 39 39 40 42 42 41 43
19 19 19 20 22 25 26 26 26 27 29 30 31 31 31 31 31 32 32 33 35 36 37 38 38 38 39 39 40 40 40 40 41 41 42 42 42 43 44 45 46 46 46 46 46 45 44 43 41 40 39 38 38 38 38 37 37 37 37 36 36 36 36 36 38 39 39 39 40 41 42 45 49 50 47 44 42 38 36 36 36 38 39 40 41
20 20 21 22 25 26 27 27 27 29 30 31 31 31 31 31 31 32 33 35 36 36 36 37 37 38 38 39 40 40 40 40 41 41 42 42 41 41 42 44 44 44 43 43 43 42 41 41 40 39 37 36 35 34 34 34 33 33 32 33 34 35 36 35 34 35 37 38 40 44 46 45 46 49 46 41 38 37 36 37 36 34 36 38 41
21 22 23 24 26 27 27 28 29 30 31 31 31 31 30 31 31 33 34 35 35 35 36 37 37 37 38 39 40 40 40 40 40 41 41 42 41 41 41 42 42 42 42 41 41 40 38 38 38 38 37 35 34 33 32 31 30 30 31 32 32 32 32 32 32 32 34 37 41 46 49 47 45 47 47 42 40 40 40 39 38 37 38 39 42
23 24 24 25 26 27 28 29 30 31 31 31 31 30 30 31 32 34 35 35 35 35 36 37 37 37 38 38 39 40 39 39 40 41 41 41 40 40 41 42 41 41 41 40 39 38 37 36 36 35 35 34 33 33 32 29 28 29 29 30 31 31 31 30 30 31 33 36 40 44 47 47 46 47 48 46 44 44 44 43 42 41 41 42 44
25 25 25 26 27 28 29 30 30 31 31 31 30 30 31 32 34 35 34 34 34 35 35 36 36 37 38 38 39 39 39 39 40 40 40 40 40 40 41 41 41 40 40 39 37 36 34 33 32 32 32 33 31 29 27 27 29 30 31 31 31 31 31 30 29 29 30 32 35 38 41 42 42 42 43 42 41 41 41 42 43 42 43 45 46
26 26 26 27 28 28 29 30 30 31 31 31 30 30 32 33 34 34 34 33 34 34 35 36 36 37 38 38 39 40 39 39 39 40 39 39 39 39 39 40 40 39 39 37 34 32 31 30 31 32 32 32 30 27 26 27 29 30 31 32 32 33 33 31 29 28 28 30 32 33 35 36 37 37 38 39 40 39 39 42 42 41 42 44 46
27 27 27 27 28 29 29 30 30 31 31 31 31 31 32 33 33 33 33 33 33 34 35 35 36 36 37 37 38 39 40 39 38 39 38 36 36 37 38 38 38 38 37 34 31 30 30 31 31 32 33 31 29 28 27 27 29 31 33 34 35 35 34 32 31 29 27 28 30 31 32 33 34 35 35 36 36 35 37 42 44 42 42 43 45
27 27 27 27 28 28 29 30 30 31 31 31 31 32 33 33 33 32 32 32 33 34 34 35 36 36 36 37 37 38 40 39 38 37 36 34 33 34 36 37 37 36 34 32 31 32 34 34 33 32 32 30 28 28 27 27 30 32 34 36 37 37 36 35 35 33 31 31 32 33 34 34 34 35 37 36 35 34 34 38 42 44 45 45 43
27 27 27 27 27 28 28 29 31 31 31 31 32 33 33 32 32 31 31 31 32 33 33 35 36 36 36 36 36 37 38 39 38 36 34 32 31 31 32 34 34 32 32 33 35 36 36 36 34 32 31 30 29 29 28 28 29 31 33 35 38 39 38 36 36 36 36 36 35 34 34 34 34 35 36 36 37 36 35 35 36 40 44 47 47
27 27 27 27 27 28 29 30 31 31 31 32 33 33 32 32 31 31 31 31 32 33 33 34 36 37 36 36 36 36 36 37 36 34 32 30 29 28 29 30 30 31 33 35 36 36 36 36 35 33 31 30 29 28 27 27 28 31 33 35 37 37 36 36 36 36 36 36 35 35 36 37 37 38 38 39 40 39 38 37 37 37 39 44 49
28 28 28 28 28 29 30 31 31 31 31 32 33 32 31 31 31 30 30 31 32 33 34 34 36 37 36 36 36 35 34 34 34 32 30 28 27 26 27 26 26 29 32 34 34 35 36 37 36 32 30 29 29 29 29 29 29 31 32 34 35 34 34 35 36 36 37 39 39 41 41 41 42 42 42 43 42 40 39 40 40 40 40 41 44
29 29 29 29 29 29 30 31 31 30 30 31 32 32 31 30 30 29 29 31 32 33 33 34 36 37 37 36 35 35 34 33 31 29 28 26 26 26 25 23 23 26 30 33 35 37 37 36 35 33 32 32 32 31 31 31 32 32 32 32 31 31 32 33 35 36 38 39 40 42 41 40 41 42 42 42 41 40 39 39 39 40 42 43 44
30 30 29 29 29 30 31 31 30 30 30 31 31 31 30 30 29 29 28 30 32 33 33 34 35 36 37 37 36 35 33 32 30 28 27 27 27 27 25 24 25 27 31 35 37 38 38 37 36 35 34 33 33 32 32 32 33 33 32 29 29 30 32 34 36 37 38 40 40 42 42 41 41 41 41 42 42 41 40 40 39 38 40 43 45
31 30 30 30 30 31 31 30 30 30 30 30 31 30 30 30 29 28 28 29 31 32 33 33 34 35 35 36 36 35 33 32 30 28 28 27 27 27 27 28 30 30 32 35 36 36 37 37 36 36 35 35 35 34 33 33 33 33 32 32 33 34 34 35 37 38 40 41 42 44 45 44 43 43 42 41 42 42 41 41 40 40 39 41 45
31 31 31 31 31 32 32 30 30 30 30 29 30 29 29 29 29 28 28 29 30 31 32 32 32 33 33 34 35 34 33 31 30 28 28 28 29 30 31 34 35 34 34 35 35 36 37 37 36 36 36 36 34 32 32 34 35 35 35 35 35 34 34 35 36 38 40 42 43 45 46 46 45 44 42 41 42 43 41 40 41 41 41 40 42
32 32 32 32 32 32 32 31 30 30 29 29 28 28 28 28 29 29 28 28 30 31 31 31 31 31 32 32 32 32 31 29 28 27 28 29 31 33 35 37 38 37 37 37 37 37 38 37 37 36 36 36 35 34 35 37 37 36 34 32 32 32 32 33 34 35 37 39 41 43 44 44 44 44 42 42 43 43 41 39 40 41 40 39 40
32 32 32 32 32 32 31 31 30 30 29 28 28 27 27 27 28 27 26 27 30 30 30 30 29 28 29 29 29 30 29 27 26 27 28 30 31 33 34 35 36 36 36 36 35 36 37 38 37 37 37 37 37 37 36 35 34 32 30 29 28 28 28 29 30 31 33 35 37 39 40 41 41 41 41 41 42 42 40 38 39 40 38 38 40
32 32 32 31 31 31 30 30 30 29 29 28 28 27 27 27 28 27 25 25 28 30 30 29 27 26 26 26 26 27 28 26 25 25 25 26 28 30 32 33 34 34 34 34 34 36 37 35 34 33 34 34 35 34 33 31 29 27 26 25 25 25 26 28 29 30 31 32 34 36 37 39 39 39 39 40 40 39 38 37 38 38 37 37 40
31 31 31 31 31 30 29 29 29 29 29 29 29 28 26 25 26 28 27 26 26 27 28 27 23 21 21 22 22 23 25 25 23 22 23 24 26 28 30 31 33 34 34 34 34 34 34 32 31 31 31 31 31 30 29 28 28 27 25 24 24 25 26 27 28 29 29 29 31 33 34 36 38 38 38 39 40 39 38 37 36 36 36 37 40
30 30 29 29 29 29 29 29 28 28 28 28 29 30 28 25 23 23 25 26 25 24 23 22 18 15 16 20 21 21 21 21 21 20 22 24 26 27 29 31 32 33 33 34 33 31 30 30 29 29 29 28 28 28 28 28 28 28 27 25 24 25 26 27 28 28 28 28 29 31 32 34 35 36 36 37 38 38 37 35 34 34 36 36 37
30 29 28 28 28 28 28 28 28 27 27 28 28 30 31 29 25 21 20 22 24 24 22 19 16 15 16 18 20 20 20 20 20 19 21 23 25 26 27 29 30 30 29 29 29 27 26 26 26 26 26 27 27 27 27 28 27 27 28 28 27 26 26 27 28 28 26 26 29 31 32 33 33 33 33 33 34 35 35 33 32 33 34 34 34
29 28 27 27 27 27 27 27 27 27 27 28 28 29 30 31 30 26 21 19 20 21 21 18 16 15 15 16 18 19 19 19 18 18 20 22 24 24 25 26 26 26 26 26 26 25 25 25 25 25 26 27 27 27 27 27 27 27 28 29 29 28 27 28 28 28 26 27 30 32 32 31 31 32 31 31 31 32 32 33 33 34 33 33 34
29 28 27 27 27 27 27 26 26 26 27 27 28 29 28 28 29 29 26 22 19 18 18 17 16 15 14 15 16 17 17 17 16 16 19 21 22 23 23 23 23 24 25 26 27 27 27 27 26 26 26 27 27 28 28 28 28 28 28 28 28 28 28 28 28 28 27 28 30 31 30 29 29 30 32 32 32 32 33 34 34 34 33 33 33
28 27 27 26 27 27 26 26 26 27 27 27 27 28 28 27 27 26 26 25 22 19 16 16 17 17 16 16 16 17 17 16 16 16 19 21 22 22 22 21 21 23 25 26 27 28 29 29 28 27 27 27 26 27 27 28 28 28 29 29 29 29 28 28 28 28 28 29 29 28 27 28 28 29 31 33 33 34 34 34 33 33 32 31 31
27 27 26 26 26 26 26 26 26 27 27 27 26 26 26 26 26 25 24 23 22 20 17 15 16 17 18 17 16 16 16 15 15 16 17 19 21 22 23 24 24 24 24 25 26 27 28 29 29 28 28 27 27 26 27 27 27 28 28 29 30 29 28 28 28 28 28 29 29 27 26 26 26 27 28 30 32 33 33 32 32 31 28 26 26
26 26 26 26 27 27 26 26 26 27 27 26 26 25 25 25 24 24 23 22 20 19 18 16 16 17 17 17 16 15 14 13 13 13 15 17 19 21 22 23 24 24 24 25 25 26 27 28 28 28 28 28 27 27 26 26 27 27 28 29 30 30 29 29 28 28 28 28 29 28 27 26 25 24 24 25 28 30 31 31 30 27 23 20 20
26 26 26 27 27 27 26 26 26 26 26 26 25 24 24 24 23 22 22 21 20 18 17 16 16 17 18 18 18 16 14 13 13 13 13 15 17 19 21 22 23 24 24 25 25 26 27 27 28 28 28 27 27 27 26 27 27 27 28 29 30 30 30 29 29 28 28 28 28 27 27 26 25 24 24 23 24 25 26 26 25 23 20 17 16
26 27 27 27 27 27 27 26 26 25 25 25 24 23 23 23 22 22 21 20 19 18 17 16 16 17 18 18 19 19 17 15 15 16 17 17 18 19 20 21 22 23 24 24 24 25 25 26 27 28 27 27 27 26 26 26 27 27 28 30 30 31 30 30 30 29 29 29 28 27 26 25 25 24 24 23 22 21 21 21 21 21 20 19 17
27 27 27 27 27 27 27 26 25 25 24 23 22 22 22 22 21 21 20 19 18 17 17 16 15 16 16 17 18 19 18 17 17 17 18 19 19 19 20 21 22 23 24 25 25 25 25 25 26 27 28 28 27 27 27 27 27 27 28 29 30 31 31 30 30 29 29 28 28 26 26 25 24 24 23 22 22 20 19 18 18 18 19 18 17
27 28 28 27 27 27 26 26 25 24 23 22 21 21 21 21 21 20 20 19 18 17 16 15 14 15 15 15 15 16 17 17 16 16 17 18 18 19 20 21 22 22 23 24 25 25 25 25 25 26 27 28 28 28 28 27 27 28 28 29 31 31 31 30 29 29 28 28 27 26 25 24 23 23 22 22 21 20 19 17 16 16 16 16 15
28 28 27 27 26 26 26 25 24 24 23 21 21 20 20 20 20 19 19 18 17 17 16 15 13 13 14 14 14 14 15 15 15 15 15 16 16 17 18 19 20 21 22 23 24 24 25 24 24 25 26 27 28 28 28 28 28 29 29 29 31 32 32 31 30 28 28 27 27 26 24 23 21 21 21 20 18 17 16 15 14 13 13 13 14
28 28 27 26 25 25 25 24 23 23 22 20 20 20 19 19 19 18 17 17 17 17 16 15 13 12 13 13 14 14 14 14 14 14 14 15 15 16 17 18 18 19 20 21 22 23 24 24 24 24 24 26 26 27 27 27 28 29 29 30 30 31 32 31 30 29 28 27 26 25 24 22 21 21 20 18 17 15 14 14 13 12 12 13 13
27 27 26 25 24 24 24 23 22 21 20 20 19 19 19 18 18 17 16 16 16 16 16 15 14 13 12 13 13 14 14 13 14 14 14 15 15 16 16 17 17 18 19 19 20 21 22 23 24 23 23 24 25 25 25 25 26 27 29 29 30 31 31 31 29 29 28 26 25 24 23 22 22 21 20 18 16 15 13 13 12 12 12 13 12
26 25 24 23 23 23 22 22 21 20 19 19 19 18 18 17 17 16 16 16 16 15 15 15 15 15 14 13 13 14 14 14 14 14 14 15 15 16 17 17 17 18 18 19 20 20 21 22 23 23 23 23 24 24 25 25 24 25 26 27 28 29 30 30 28 27 26 26 25 24 23 22 21 21 20 18 17 15 13 12 11 10 10 11 10
24 23 23 22 22 21 21 20 20 19 19 19 18 17 17 16 16 15 16 16 16 15 15 15 16 16 15 14 14 15 15 15 15 15 15 15 16 16 17 17 17 18 18 19 19 20 21 21 22 23 24 24 24 24 25 25 25 24 24 24 25 27 28 28 27 25 25 25 25 24 23 21 20 19 19 18 17 15 14 12 11 10 9 9 9
22 21 21 21 20 20 20 19 19 19 19 18 18 17 16 16 15 15 16 16 16 16 16 16 16 16 16 15 16 16 16 16 16 16 17 17 17 17 18 18 18 18 18 18 19 20 20 21 22 22 23 23 24 24 24 24 25 24 24 23 24 25 25 26 26 25 24 23 23 23 22 21 19 18 17 17 17 16 14 13 12 11 9 9 8
20 20 19 19 19 19 19 18 19 19 18 18 17 17 16 15 15 15 16 16 16 16 16 17 16 16 17 17 17 17 17 17 18 18 18 19 19 19 19 19 19 19 19 19 19 20 20 21 21 22 22 23 23 23 23 24 24 24 24 23 23 23 23 24 24 25 24 23 22 21 21 20 19 18 17 17 17 16 15 14 13 12 10 9 7
18 18 18 18 19 18 18 18 18 18 18 18 17 16 16 16 16 16 16 17 17 17 17 17 17 17 17 17 17 18 18 18 19 19 20 20 20 21 21 20 20 20 20 20 20 20 21 21 21 21 22 22 23 23 23 23 24 24 24 23 22 21 21 21 21 22 23 23 22 21 20 19 19 18 18 17 17 16 15 15 14 12 10 9 8
17 17 18 18 18 17 17 17 17 17 17 17 17 16 16 16 16 16 16 17 17 17 18 18 18 18 18 18 18 19 19 20 20 20 20 21 21 22 22 22 22 21 21 21 21 21 21 22 21 21 21 21 22 22 22 22 23 23 23 22 21 21 20 20 19 19 20 22 22 21 20 19 18 17 18 17 17 16 16 15 14 13 11 10 10
16 17 17 17 17 16 16 17 17 16 16 16 16 15 15 16 16 16 16 17 17 17 18 18 18 18 19 19 19 20 20 20 21 21 21 21 22 23 23 23 23 23 23 22 22 22 22 22 22 22 22 22 21 21 22 21 21 21 21 21 20 19 19 19 18 18 18 19 19 19 19 18 18 17 17 17 17 16 16 15 14 13 12 11 11
Wind_Direction
182 162 7 7 355 348 343 338 335 332 331 329 326 325 324 324 324 324 324 325 323 323 323 322 321 320 318 317 317 316 315 314 314 313 313 312 312 311 310 310 309 309 308 308 308 307 306 305 305 305 305 304 303 302 302 301 300 298 296 294 293 293 293 292 291 293 295 295 295 296 298 298 298 298 297 296 295 292 288 284 282 280 279 278 275
271 343 343 340 333 329 328 328 327 327 327 327 326 326 327 327 327 326 326 325 325 324 324 324 324 322 320 318 316 314 313 312 312 311 311 310 310 310 310 309 308 307 306 306 305 305 304 303 302 302 301 299 298 298 298 297 297 296 294 292 290 289 288 288 289 290 292 294 295 295 296 297 296 297 299 298 298 296 292 289 286 282 280 278 277
297 320 321 321 321 323 327 328 328 328 327 327 327 327 328 328 327 326 325 325 324 324 324 324 324 322 321 319 317 316 314 313 312 312 311 310 309 309 308 308 307 306 305 305 304 304 303 301 300 300 300 297 295 294 293 292 291 291 290 289 289 288 286 284 284 286 288 290 291 291 293 294 293 294 297 297 297 297 295 293 291 287 283 280 277
297 308 313 317 320 324 326 327 326 325 325 325 325 325 325 324 324 323 322 322 322 322 322 322 321 320 319 318 317 317 316 315 315 314 313 312 311 309 308 306 305 304 303 303 302 302 301 300 299 299 299 297 295 294 293 291 289 287 285 284 284 285 284 283 281 282 284 286 287 288 289 290 289 290 293 294 295 295 294 294 293 291 288 285 281
299 308 314 317 319 321 322 322 322 322 322 322 321 321 320 319 319 318 318 317 317 317 317 317 317 316 316 316 316 317 317 316 315 314 314 312 311 310 308 307 305 304 303 302 301 301 300 298 298 297 298 296 295 295 295 293 291 288 285 283 281 281 280 280 279 279 280 282 284 285 286 287 287 287 289 291 292 292 292 292 292 292 292 290 288
300 308 312 313 315 316 317 318 319 319 318 317 316 316 315 314 314 313 313 313 312 312 313 313 313 313 313 314 314 315 315 314 314 313 312 312 311 309 308 307 306 305 304 303 302 301 299 298 296 295 294 293 292 293 294 294 292 290 288 285 283 281 279 277 277 277 277 278 280 282 283 284 285 286 286 286 288 289 290 291 291 292 293 292 290
298 303 305 307 310 312 313 314 315 314 313 312 311 310 309 309 309 309 309 309 310 310 311 311 311 311 312 312 312 312 312 311 311 311 311 311 310 309 308 307 306 305 304 302 301 299 298 296 295 294 292 291 289 289 289 289 289 290 290 289 286 284 281 278 277 277 276 276 276 278 280 281 282 283 284 285 284 284 286 289 291 292 292 291 290
291 295 298 301 304 307 309 310 310 309 309 308 307 307 307 307 307 307 307 308 309 309 309 310 310 310 311 311 310 310 310 310 311 311 311 310 309 309 308 308 307 306 304 303 301 299 298 296 295 294 293 291 289 288 286 285 285 285 286 288 288 286 284 282 280 279 278 278 277 277 278 280 280 280 281 282 282 281 283 287 288 288 290 291 291
284 288 291 295 300 304 307 309 308 309 308 308 307 306 306 306 306 306 307 307 307 308 309 309 310 310 310 310 310 310 311 312 312 312 312 312 311 310 310 309 309 308 306 304 302 301 300 299 298 296 294 292 290 287 284 282 281 280 280 282 284 285 285 284 283 281 280 280 278 278 279 280 280 280 281 280 279 280 282 283 283 283 286 289 288
281 284 287 292 298 304 308 309 309 310 310 309 308 307 307 306 306 306 306 306 307 308 309 309 309 309 310 310 311 312 312 313 314 315 315 315 315 314 313 312 311 309 308 306 304 304 304 303 302 300 298 296 292 289 286 283 279 277 276 276 277 279 281 281 282 282 282 281 280 280 281 280 278 279 281 281 281 280 279 279 280 281 283 284 283
278 280 284 291 298 305 308 309 310 311 311 310 309 308 307 306 306 306 306 307 307 308 308 308 309 309 310 311 312 313 314 316 317 317 318 319 318 317 316 314 313 311 310 309 308 308 308 307 306 304 302 301 298 295 292 288 283 280 278 276 274 273 273 275 276 278 279 280 281 281 281 280 278 278 279 281 282 282 281 280 279 279 279 280 280
274 277 284 292 298 304 307 309 310 310 311 310 309 308 307 306 306 306 306 307 307 307 308 308 309 311 312 313 314 314 316 318 319 320 320 320 320 319 317 315 314 313 312 311 311 310 310 309 307 306 304 303 302 299 297 294 290 287 283 280 275 271 268 268 271 273 274 276 278 277 277 277 276 276 277 280 281 283 284 282 280 278 278 278 277
273 279 286 292 297 302 306 308 309 310 310 310 308 307 307 306 306 305 305 306 306 307 308 309 311 312 313 314 315 316 317 319 321 321 321 322 322 321 318 316 314 313 312 311 311 311 311 311 310 310 310 310 308 306 304 302 299 295 291 286 281 277 272 268 267 268 269 270 271 270 270 271 273 274 276 279 282 283 282 281 280 279 277 276 274
276 281 285 289 294 300 305 307 308 309 310 309 308 307 306 305 305 305 305 306 307 308 310 311 313 314 315 316 316 316 319 321 322 322 322 323 324 322 318 316 315 314 313 313 313 313 313 314 314 315 316 315 315 314 312 309 305 300 297 294 292 290 287 282 278 273 268 264 263 264 265 267 269 271 272 273 275 276 276 277 277 277 276 275 274
277 279 281 286 293 300 305 307 308 309 309 309 307 306 305 305 305 305 306 307 308 310 312 313 314 316 316 316 316 317 321 323 323 323 324 326 325 322 319 317 316 314 314 314 314 313 314 315 316 315 315 314 314 314 314 311 305 299 296 295 295 296 295 292 288 283 278 273 270 269 269 269 270 272 273 275 275 275 275 275 274 275 274 273 273
273 275 279 286 295 302 305 307 309 309 309 308 306 305 306 306 306 306 307 308 310 312 313 314 315 316 317 317 318 319 322 324 324 325 327 328 326 322 319 318 316 315 314 314 313 313 316 317 317 316 314 314 317 321 319 312 306 304 303 303 302 300 298 296 291 286 283 281 278 276 275 274 274 275 275 277 278 278 280 279 276 275 272 270 270
272 274 280 288 297 303 306 308 309 309 308 307 305 305 306 306 306 306 307 309 311 313 313 315 316 316 317 318 319 320 323 326 326 327 329 329 326 322 319 317 314 313 312 312 313 315 318 321 323 321 318 319 324 325 317 306 303 304 303 300 298 296 296 296 293 288 284 281 279 278 277 277 277 276 275 274 274 274 275 276 275 273 270 267 267
272 276 282 291 299 303 306 308 309 308 307 305 305 305 306 306 306 306 308 310 311 312 314 315 316 317 318 319 321 322 324 327 328 328 329 329 325 321 318 315 312 311 312 313 316 319 322 325 325 322 318 316 315 310 304 301 300 300 299 299 299 299 300 302 300 297 292 288 284 283 281 280 279 278 276 276 275 273 270 268 268 270 270 267 265
273 278 285 294 300 303 305 307 307 307 305 304 305 306 306 306 306 307 308 310 311 312 314 315 315 317 319 320 322 324 325 327 328 328 328 327 324 319 316 313 311 310 313 317 320 323 323 322 322 320 318 313 304 299 298 299 298 298 299 300 298 299 303 306 305 304 304 301 297 295 291 289 288 286 282 281 279 276 272 268 265 265 267 267 266
275 280 288 295 299 301 304 306 306 305 304 304 306 306 306 306 305 307 308 309 311 312 314 315 315 317 319 321 323 325 325 326 328 328 326 324 322 318 314 311 310 313 319 322 322 320 318 318 320 322 322 315 302 297 301 301 297 297 298 296 295 299 304 305 302 303 304 303 301 299 295 293 293 291 287 285 283 279 276 274 271 266 264 264 265
279 284 290 294 298 301 303 304 304 304 303 304 306 306 306 305 305 307 308 310 311 313 314 315 314 316 319 321 323 325 325 325 327 326 323 321 321 319 314 313 315 318 319 317 314 313 312 314 318 321 323 318 309 307 310 308 302 300 299 298 299 302 304 302 299 299 299 297 295 293 290 289 288 285 284 283 282 281 278 275 275 274 270 265 263
282 286 290 294 297 300 302 303 302 302 303 304 305 306 305 304 305 307 309 310 312 313 314 314 314 315 318 320 322 324 324 325 325 324 321 321 321 318 316 318 318 314 311 309 308 309 310 312 315 319 320 319 316 314 313 309 306 304 303 301 300 300 298 295 294 293 291 289 288 286 286 286 286 285 285 284 284 283 280 275 271 269 269 268 266
284 287 290 294 297 299 301 301 300 301 303 304 305 305 305 304 305 307 309 310 311 312 313 314 314 315 317 319 321 322 323 324 325 324 322 322 320 318 319 323 320 312 308 308 307 308 309 311 315 319 319 317 315 314 311 306 302 299 299 299 298 298 296 293 292 290 289 289 290 290 291 292 292 291 290 289 288 287 285 281 276 269 266 266 266
285 288 291 295 298 299 300 300 300 301 303 304 305 305 304 304 306 307 309 310 310 311 312 313 314 315 317 318 320 321 322 324 326 327 326 325 323 321 322 327 325 316 310 308 308 309 311 313 316 317 314 309 306 304 301 300 299 300 304 307 305 302 300 297 296 295 294 293 293 293 294 296 296 296 296 294 292 289 286 284 281 277 270 265 264
286 289 293 296 298 299 300 299 299 301 303 304 304 304 304 304 305 307 309 310 310 310 312 313 314 315 316 317 319 320 323 327 330 332 331 328 326 326 327 329 325 316 308 307 307 307 308 310 312 310 307 305 305 304 303 303 304 306 310 310 307 305 304 302 301 300 298 297 296 295 295 296 296 296 296 294 291 289 287 284 282 280 276 272 267
288 291 294 296 298 298 298 298 298 300 302 303 303 303 303 304 305 307 309 309 309 310 311 312 314 315 315 317 318 321 326 332 334 334 333 332 331 332 332 329 325 318 312 311 311 311 312 313 313 310 308 308 309 307 305 304 305 306 307 308 309 309 308 306 304 302 300 299 298 297 297 298 297 296 295 293 290 288 289 288 286 283 280 279 275
288 291 293 295 296 296 296 296 297 299 300 301 301 301 302 303 304 306 309 309 308 309 310 312 314 314 314 316 320 324 330 335 336 335 336 336 336 334 331 327 325 322 318 317 317 315 313 311 308 306 305 304 303 302 302 304 306 309 310 312 313 311 309 307 305 303 301 300 300 299 300 300 299 297 295 293 290 289 290 290 287 285 282 280 278
287 289 291 292 293 293 293 294 297 299 299 300 300 300 301 302 302 305 308 308 307 308 309 310 312 314 316 320 324 327 329 334 337 337 337 336 333 329 326 323 320 318 315 314 312 308 304 304 304 305 305 305 306 308 309 310 311 311 312 314 315 315 314 312 309 307 307 305 304 303 303 302 301 299 298 295 292 291 291 290 287 285 284 280 277
285 287 289 290 290 290 291 294 296 298 299 300 300 300 301 302 302 304 306 305 305 307 308 311 315 318 320 322 324 323 325 332 337 337 335 332 327 323 321 318 316 315 313 312 310 307 307 309 310 310 311 311 312 313 312 311 311 311 313 316 318 321 323 321 318 316 314 312 309 306 306 305 303 302 300 296 294 293 292 290 287 285 283 280 276
284 286 287 288 288 288 290 293 295 296 298 299 300 299 300 301 303 305 306 306 306 307 309 312 317 318 314 312 315 318 322 327 333 335 334 329 325 324 324 322 322 322 321 320 318 317 317 317 315 314 314 314 314 313 312 312 312 313 314 315 319 326 329 327 325 321 316 312 310 309 308 306 304 303 300 296 295 293 290 288 285 282 280 280 277
284 285 286 286 286 287 289 291 292 294 296 298 299 300 300 300 300 302 303 303 304 304 306 307 307 304 302 304 310 317 320 323 331 335 331 325 326 331 331 330 330 331 330 329 328 326 323 319 317 316 316 316 316 316 314 314 314 314 315 316 320 327 330 331 329 323 317 313 312 311 310 308 305 303 301 297 295 293 291 289 286 283 282 283 281
283 284 284 283 283 285 286 289 291 293 295 297 298 299 301 301 300 299 297 298 300 302 303 302 299 298 299 302 308 316 321 325 332 333 327 325 331 336 335 333 335 336 336 334 333 331 329 326 324 324 323 321 320 318 317 316 316 317 318 319 321 326 330 331 330 326 323 323 321 318 314 311 307 305 304 301 297 294 291 290 288 285 286 286 283
284 284 284 283 282 284 286 288 290 292 294 296 297 298 299 301 302 302 299 296 296 297 299 301 299 298 300 303 308 316 322 328 332 329 326 330 335 336 336 337 338 339 342 343 343 344 343 341 337 335 332 330 326 323 320 319 319 321 322 323 325 328 330 331 330 329 331 331 326 320 317 315 313 311 310 308 303 296 293 291 290 289 289 288 286
284 284 283 282 282 284 286 287 290 291 293 294 295 296 297 299 301 302 302 301 297 292 292 296 300 301 303 307 312 318 323 327 330 329 330 333 335 336 338 339 340 345 351 354 356 357 356 352 349 344 339 336 333 329 326 325 325 326 327 327 329 329 330 331 330 331 334 333 326 321 320 320 319 316 314 312 308 303 298 295 294 294 292 290 291
282 281 281 281 282 284 285 287 289 291 292 292 293 294 296 297 298 299 301 302 301 299 294 293 298 305 312 316 319 322 326 327 328 330 333 334 334 336 339 341 346 353 357 359 1 3 2 359 357 353 347 342 339 336 333 332 332 333 333 333 332 331 331 333 333 333 334 332 327 323 323 323 323 321 317 313 308 303 299 298 297 296 295 296 300
280 279 279 281 282 283 285 286 288 289 290 291 291 292 293 294 295 296 297 298 300 302 301 298 298 304 312 318 321 323 325 325 326 332 336 336 336 339 343 348 353 358 0 1 2 4 3 1 359 357 353 349 346 343 341 340 339 338 338 337 335 334 335 337 337 336 334 331 328 327 324 322 322 322 320 314 307 301 298 297 298 299 299 303 310
279 279 280 281 281 282 284 285 286 287 288 289 289 290 290 291 292 293 295 296 297 299 302 302 300 300 305 311 315 318 320 322 328 338 341 338 338 342 347 352 355 359 2 4 3 3 3 1 359 357 355 352 350 348 347 347 346 345 344 341 340 339 340 340 338 335 332 329 329 328 325 323 322 322 320 315 310 305 301 299 299 302 304 305 313
279 279 280 279 279 281 282 283 284 285 286 287 287 287 288 289 290 291 292 294 296 298 300 303 303 303 304 308 312 316 319 321 330 342 345 343 344 347 350 354 357 358 1 3 3 3 2 1 359 358 355 353 351 351 350 351 352 352 350 347 344 342 341 340 337 334 332 330 329 329 328 326 325 324 320 315 310 308 308 306 304 303 306 306 307
278 278 278 279 279 280 280 281 282 282 283 284 284 284 285 287 288 289 290 291 294 296 298 301 303 303 305 307 310 315 320 327 336 344 347 348 350 352 353 355 357 358 359 0 1 2 2 1 360 359 357 354 352 352 352 353 355 356 355 352 348 345 344 342 340 338 335 331 330 331 331 330 328 327 324 319 313 309 309 311 310 306 304 304 303
276 277 277 278 278 279 279 279 280 280 280 281 281 282 284 285 286 286 288 290 292 294 296 299 300 301 303 305 308 313 321 330 339 343 343 345 348 350 352 353 355 357 357 358 359 0 2 2 1 360 358 356 354 353 354 355 356 357 358 357 354 351 348 346 343 341 337 335 333 334 334 333 332 330 328 325 320 311 304 303 304 304 302 300 298
275 276 277 276 276 276 277 277 278 278 278 279 280 281 283 284 284 285 286 288 291 293 294 296 298 298 299 302 306 311 317 325 333 336 338 340 343 345 348 350 353 355 356 356 357 358 360 2 3 2 0 358 357 355 355 356 357 358 359 359 358 355 352 349 346 343 340 338 337 336 336 336 336 336 334 331 327 319 309 301 295 294 297 297 295
275 275 274 274 273 273 273 274 275 276 276 278 279 281 281 282 283 284 286 288 290 292 293 294 294 293 294 296 299 303 309 316 322 326 330 333 336 339 342 346 349 352 353 353 354 355 357 360 2 3 2 0 358 357 357 357 358 358 358 359 0 358 354 351 348 345 343 341 339 339 338 339 340 342 343 340 334 327 322 317 311 306 306 305 299
274 273 272 271 270 270 270 271 272 273 276 277 278 279 280 281 282 284 286 288 289 290 292 293 291 288 287 289 292 296 301 307 312 317 322 326 330 332 336 340 343 346 348 349 350 351 352 355 358 1 3 1 358 356 357 359 0 359 358 359 0 359 356 353 350 348 346 343 343 343 343 344 346 349 349 347 344 339 335 334 336 338 335 325 311
272 271 270 269 267 267 267 268 270 271 273 275 275 277 278 280 281 284 286 287 288 290 292 292 291 288 284 282 286 291 295 299 304 309 314 319 323 326 329 334 337 340 342 344 345 347 347 349 351 355 358 360 359 357 357 360 2 2 360 359 360 360 357 354 353 352 349 347 347 348 349 350 352 353 353 352 352 352 349 347 348 352 354 346 328
271 269 267 266 264 264 264 266 268 269 270 272 273 275 277 278 280 283 285 287 288 289 290 291 291 289 286 283 284 287 291 296 301 306 310 314 317 320 324 328 331 334 336 338 340 342 344 345 347 349 352 355 357 357 357 358 1 4 3 1 1 1 358 355 355 356 354 352 352 353 354 355 357 357 358 359 0 1 0 359 359 2 5 0 346
268 267 265 263 262 262 263 264 265 267 268 270 272 273 275 278 281 283 285 287 288 289 289 290 289 289 289 288 287 288 291 295 299 303 307 310 313 315 319 322 325 329 331 333 335 337 339 341 342 344 347 349 352 354 356 356 358 1 3 2 2 2 0 357 357 359 359 358 358 358 357 358 360 1 2 4 6 8 10 11 12 17 19 13 2
267 265 263 261 260 260 261 262 264 265 267 268 270 272 274 277 280 283 285 287 288 289 290 289 289 289 290 291 291 291 292 295 298 301 304 306 308 311 314 316 319 322 325 328 330 331 334 336 338 340 342 344 346 349 353 353 354 356 360 1 2 3 2 360 359 1 2 3 3 2 1 1 2 4 8 11 12 14 17 20 22 25 27 26 20
265 262 260 260 260 260 260 261 263 264 265 267 269 271 273 276 279 282 285 286 288 290 290 290 290 291 292 292 293 294 294 296 297 299 300 302 304 306 308 310 313 316 318 321 323 325 327 330 332 334 337 339 342 344 347 349 350 351 354 358 0 1 1 0 1 3 4 6 7 8 9 9 9 10 14 18 19 20 22 25 28 29 29 29 29
262 260 260 260 260 260 261 262 262 263 265 267 268 270 274 277 279 281 284 286 288 289 290 290 291 293 293 294 295 295 296 297 298 298 298 299 300 301 303 306 308 311 313 315 317 319 321 323 326 329 331 334 337 339 342 344 346 347 349 353 356 358 359 360 2 5 7 8 9 10 14 17 19 21 23 25 26 27 29 30 30 31 31 31 32
262 261 261 261 261 261 262 262 263 265 266 267 269 271 273 276 279 281 283 286 288 289 290 291 292 294 295 295 296 296 297 298 298 298 298 298 298 299 301 303 304 306 308 310 312 314 316 317 320 323 325 327 331 333 336 339 342 343 345 347 349 352 354 356 359 4 9 10 10 11 14 19 25 30 33 34 34 35 37 37 35 35 35 35 36
263 262 262 262 262 262 263 264 265 267 267 268 271 274 275 276 279 281 283 286 287 289 290 291 293 295 296 296 297 298 299 299 299 299 299 299 298 299 300 301 302 303 305 306 308 310 311 312 314 317 319 322 325 328 331 334 337 339 341 342 343 345 349 352 355 1 7 10 10 11 13 17 21 27 34 38 39 39 40 41 42 42 43 44 45